Location: Nora Junction
(43.1400°N, 93.0163°W)
Time: 23:23:54
(UTC+00:00)

Cosmos 1833 Rocket - Pass Details

Date: 18 November 2025
Orbit: 830 x 840 km, 71.0° (Epoch: 14 December)

Event Time Altitude Azimuth Distance (km) Brightness Sun altitude
Rises 23:10:13 0° 333° (NNW) 3,403 5.9 -5.0°
Reaches altitude 10° 23:12:40 10° 331° (NNW) 2,465 5.2 -5.4°
Maximum altitude 23:18:17 70° 249° (WSW) 895 3.1 -6.4°
Drops below altitude 10° 23:23:52 10° 167° (SSE) 2,446 5.2 -7.3°
Sets 23:26:18 0° 165° (SSE) 3,375 5.9 -7.7°
